| time (UTC) | temp F | wind direction | speed MPH | gust MPH | rain 1hr in | rain 24hr in | rain mn in | humidity % | barometer mb |
| 20260504222004 | 52 | 259 | 2.0 | 10.0 | 0.00 | 0.86 | 0.38 | 64 | 1000.5 |
| 20260504221003 | 53 | 241 | 4.0 | 14.0 | 0.00 | 0.89 | 0.38 | 62 | 1000.2 |
| 20260504220004 | 53 | 240 | 3.0 | 9.0 | 0.00 | 0.90 | 0.38 | 61 | 1000.2 |
| 20260504215003 | 53 | 230 | 3.0 | 10.0 | 0.00 | 0.92 | 0.38 | 60 | 999.8 |
| 20260504214003 | 54 | 245 | 3.0 | 9.0 | 0.00 | 0.93 | 0.38 | 58 | 1000.2 |
| 20260504213004 | 54 | 232 | 3.0 | 11.0 | 0.00 | 0.95 | 0.38 | 57 | 1000.2 |
| 20260504212004 | 54 | 263 | 4.0 | 17.0 | 0.00 | 0.98 | 0.38 | 56 | 1000.2 |
| 20260504211004 | 54 | 242 | 4.0 | 13.0 | 0.00 | 1.01 | 0.38 | 52 | 1000.2 |
| 20260504210004 | 55 | 218 | 4.0 | 14.0 | 0.00 | 1.03 | 0.38 | 49 | 999.8 |
| 20260504205003 | 56 | 240 | 4.0 | 17.0 | 0.00 | 1.05 | 0.38 | 46 | 999.8 |
| 20260504204003 | 57 | 245 | 4.0 | 15.0 | 0.00 | 1.07 | 0.38 | 44 | 999.5 |
| 20260504203003 | 57 | 252 | 2.0 | 13.0 | 0.00 | 1.08 | 0.38 | 43 | 999.5 |
| 20260504202004 | 57 | 266 | 4.0 | 10.0 | 0.00 | 1.10 | 0.38 | 37 | 999.5 |
| 20260504201004 | 58 | 282 | 5.0 | 15.0 | 0.00 | 1.12 | 0.38 | 35 | 999.2 |
| 20260504200004 | 58 | 276 | 5.0 | 17.0 | 0.00 | 1.16 | 0.38 | 34 | 999.2 |
| 20260504195003 | 59 | 263 | 4.0 | 13.0 | 0.00 | 1.20 | 0.38 | 32 | 998.8 |
| 20260504194003 | 59 | 280 | 5.0 | 14.0 | 0.00 | 1.24 | 0.38 | 32 | 999.2 |
| 20260504193003 | 61 | 283 | 6.0 | 18.0 | 0.00 | 1.27 | 0.38 | 30 | 998.8 |
| 20260504192003 | 62 | 293 | 5.0 | 19.0 | 0.00 | 1.32 | 0.38 | 29 | 998.8 |
| 20260504191003 | 61 | 283 | 6.0 | 16.0 | 0.00 | 1.38 | 0.38 | 30 | 998.8 |
| 20260504190004 | 61 | 284 | 5.0 | 21.0 | 0.00 | 1.45 | 0.38 | 29 | 998.8 |
| 20260504185003 | 61 | 275 | 5.0 | 17.0 | 0.00 | 1.49 | 0.38 | 28 | 998.8 |
| 20260504184003 | 61 | 278 | 5.0 | 18.0 | 0.00 | 1.54 | 0.38 | 29 | 998.8 |
| 20260504183003 | 60 | 290 | 6.0 | 18.0 | 0.00 | 1.58 | 0.38 | 35 | 998.8 |
| 20260504182003 | 59 | 275 | 6.0 | 18.0 | 0.00 | 1.61 | 0.38 | 31 | 998.8 |
| 20260504181003 | 59 | 277 | 6.0 | 18.0 | 0.00 | 1.65 | 0.38 | 32 | 998.8 |
| 20260504180003 | 58 | 284 | 5.0 | 21.0 | 0.00 | 1.68 | 0.38 | 33 | 998.8 |
| 20260504175003 | 58 | 277 | 7.0 | 19.0 | 0.00 | 1.71 | 0.38 | 33 | 998.8 |
| 20260504174003 | 58 | 271 | 6.0 | 17.0 | 0.00 | 1.74 | 0.38 | 34 | 998.8 |
| 20260504173004 | 58 | 278 | 6.0 | 16.0 | 0.00 | 1.76 | 0.38 | 34 | 998.8 |
| 20260504172003 | 57 | 238 | 4.0 | 13.0 | 0.00 | 1.79 | 0.38 | 35 | 998.8 |
| 20260504171003 | 57 | 252 | 6.0 | 16.0 | 0.00 | 1.81 | 0.38 | 36 | 999.2 |
| 20260504151003 | 51 | 274 | 5.0 | 15.0 | 0.00 | 1.85 | 0.38 | 57 | 999.2 |
| 20260504141003 | 48 | 273 | 5.0 | 18.0 | 0.00 | 1.86 | 0.38 | 68 | 998.5 |
| 20260504082004 | 38 | 281 | 4.0 | 9.0 | 0.04 | 1.86 | 0.37 | 98 | 994.4 |
| 20260504081003 | 38 | 283 | 5.0 | 18.0 | 0.04 | 1.85 | 0.36 | 98 | 994.0 |
| 20260504050004 | 34 | 285 | 5.0 | 16.0 | 0.08 | 1.59 | 0.10 | 98 | 991.7 |
| 20260504045003 | 34 | 303 | 5.0 | 15.0 | 0.08 | 1.58 | 0.09 | 98 | 991.3 |
| 20260504044003 | 34 | 283 | 5.0 | 13.0 | 0.07 | 1.56 | 0.07 | 99 | 991.3 |
| 20260504043003 | 34 | 293 | 5.0 | 15.0 | 0.06 | 1.55 | 0.06 | 99 | 991.3 |
| 20260504042003 | 34 | 293 | 4.0 | 10.0 | 0.05 | 1.54 | 0.05 | 99 | 991.3 |
| 20260504041003 | 34 | 287 | 4.0 | 10.0 | 0.03 | 1.52 | 0.03 | 99 | 991.0 |
| 20260504040003 | 33 | 285 | 4.0 | 10.0 | 0.02 | 1.51 | 0.02 | 99 | 991.0 |
| 20260504035003 | 33 | 297 | 4.0 | 10.0 | 0.01 | 1.50 | 0.01 | 99 | 991.0 |
| 20260504034003 | 33 | 285 | 4.0 | 10.0 | 0.00 | 1.49 | 0.00 | 99 | 991.0 |
| 20260504033003 | 33 | 305 | 3.0 | 13.0 | 0.00 | 1.49 | 0.00 | 99 | 991.0 |
| 20260504032003 | 33 | 301 | 3.0 | 9.0 | 0.00 | 1.49 | 0.00 | 99 | 991.0 |
| 20260504031003 | 33 | 302 | 3.0 | 8.0 | 0.00 | 1.49 | 0.00 | 99 | 990.6 |
| 20260504030004 | 33 | 300 | 3.0 | 7.0 | 0.00 | 1.49 | 0.00 | 99 | 990.6 |
| 20260504025003 | 33 | 313 | 3.0 | 9.0 | 0.00 | 1.49 | 1.49 | 99 | 990.6 |
| 20260504024004 | 33 | 314 | 3.0 | 10.0 | 0.00 | 1.49 | 1.49 | 99 | 990.6 |
| 20260504023003 | 33 | 294 | 3.0 | 8.0 | 0.01 | 1.49 | 1.49 | 98 | 990.6 |
| 20260504022003 | 33 | 302 | 3.0 | 9.0 | 0.02 | 1.49 | 1.49 | 98 | 990.6 |
| 20260504021003 | 33 | 301 | 3.0 | 13.0 | 0.03 | 1.49 | 1.49 | 98 | 991.0 |
| 20260504020004 | 33 | 312 | 3.0 | 13.0 | 0.05 | 1.49 | 1.49 | 98 | 991.0 |
| 20260504015003 | 33 | 304 | 3.0 | 11.0 | 0.09 | 1.49 | 1.49 | 98 | 991.0 |
| 20260504014003 | 34 | 304 | 4.0 | 11.0 | 0.13 | 1.49 | 1.49 | 98 | 991.0 |
| 20260504013003 | 34 | 324 | 3.0 | 11.0 | 0.17 | 1.48 | 1.48 | 98 | 991.0 |
| 20260504012003 | 34 | 323 | 3.0 | 11.0 | 0.18 | 1.47 | 1.47 | 97 | 991.0 |
| 20260504011003 | 34 | 321 | 3.0 | 13.0 | 0.18 | 1.46 | 1.46 | 97 | 991.0 |
| 20260504010003 | 35 | 313 | 4.0 | 14.0 | 0.18 | 1.44 | 1.44 | 97 | 991.0 |
| 20260504005004 | 35 | 333 | 3.0 | 10.0 | 0.17 | 1.40 | 1.40 | 97 | 991.0 |
| 20260504004003 | 36 | 345 | 3.0 | 8.0 | 0.16 | 1.36 | 1.36 | 97 | 991.3 |
| 20260504003004 | 36 | 2 | 2.0 | 9.0 | 0.14 | 1.31 | 1.31 | 97 | 991.0 |
| 20260504002003 | 36 | 3 | 3.0 | 17.0 | 0.15 | 1.29 | 1.29 | 97 | 991.3 |
| 20260504001003 | 36 | 312 | 3.0 | 16.0 | 0.18 | 1.28 | 1.28 | 97 | 991.3 |
| 20260504000004 | 37 | 339 | 2.0 | 11.0 | 0.18 | 1.26 | 1.26 | 97 | 991.7 |
| 20260503235003 | 37 | 49 | 2.0 | 9.0 | 0.17 | 1.23 | 1.23 | 97 | 991.7 |
| 20260503234003 | 37 | 22 | 3.0 | 14.0 | 0.16 | 1.20 | 1.20 | 97 | 991.7 |
| 20260503233003 | 37 | 351 | 2.0 | 7.0 | 0.14 | 1.17 | 1.17 | 97 | 991.7 |
| 20260503232003 | 37 | 52 | 3.0 | 13.0 | 0.13 | 1.14 | 1.14 | 97 | 991.7 |
| 20260503231003 | 38 | 29 | 2.0 | 8.0 | 0.12 | 1.10 | 1.10 | 97 | 991.7 |
| 20260503230003 | 38 | 29 | 3.0 | 10.0 | 0.11 | 1.08 | 1.08 | 97 | 992.3 |
| 20260503225003 | 38 | 16 | 2.0 | 8.0 | 0.11 | 1.06 | 1.06 | 98 | 992.0 |
| 20260503224003 | 38 | 48 | 3.0 | 15.0 | 0.10 | 1.04 | 1.04 | 98 | 992.3 |
| 20260503223003 | 38 | 32 | 2.0 | 13.0 | 0.11 | 1.03 | 1.03 | 98 | 992.7 |